Date String (YYYY-MM-DD hh:mm:ss) UTC,Instrument flags,Ambient pressure (hPa),Sample flow (lpm),Bypass flow (lpm),Sample temperature (°C),Ambient temperature (°C),ASC tube jacket temperature (°C),LED temperature (°C),Box temperature (°C),Sample RH (%),Span deviation,Mass concentration (μg/m³),Mass concentration (μg/m³),Mass concentration (μg/m³)
DateTimeUTC,F1_M11,P_M11,Q1_M11,Q2_M11,T1_M11,T2_M11,T3_M11,T4_M11,T5_M11,U1_M11,ZSPAN_M11,X0_M11,X2_M11,X1_M11
2022-03-12 19:00:00,,0825.3,4.99,0.00,23.4,22.4,00.0,32.4,25.1,10.6,0000.0,0001.61,0000.94,0000.65
2022-03-12 19:01:00,,0825.3,5.01,0.00,23.4,22.4,00.0,32.4,25.1,10.1,0000.0,0001.71,0000.96,0000.65
2022-03-12 19:02:00,,0825.4,5.00,0.00,23.4,22.4,00.0,32.4,25.0,10.5,0000.0,0001.70,0000.94,0000.65
2022-03-12 19:03:00,,0825.4,5.01,0.00,23.4,22.4,00.0,32.4,25.0,10.3,0000.0,0001.62,0000.93,0000.64
2022-03-12 19:04:00,,0825.3,4.99,0.00,23.4,22.4,00.0,32.4,25.1,10.9,0000.0,0001.63,0000.95,0000.65
2022-03-12 19:05:00,,0825.3,5.01,0.00,23.4,22.4,00.0,32.4,25.1,10.6,0000.0,0001.69,0000.98,0000.67
2022-03-12 19:06:00,,0825.3,4.99,0.00,23.4,22.4,00.0,32.4,25.1,10.6,0000.0,0001.72,0001.00,0000.67
2022-03-12 19:07:00,,0825.4,5.01,0.00,23.4,22.4,00.0,32.4,25.1,10.6,0000.0,0001.70,0000.98,0000.66
2022-03-12 19:08:00,,0825.4,5.01,0.00,23.4,22.3,00.0,32.4,25.1,10.5,0000.0,0001.76,0001.01,0000.65
2022-03-12 19:09:00,,0825.3,5.00,0.00,23.4,22.4,00.0,32.4,25.2,10.4,0000.0,0001.86,0001.02,0000.66
2022-03-12 19:10:00,,0825.3,5.00,0.00,23.4,22.4,00.0,32.4,25.2,10.9,0000.0,0002.00,0001.05,0000.66
2022-03-12 19:11:00,,0825.3,5.01,0.00,23.4,22.4,00.0,32.4,25.1,10.4,0000.0,0001.98,0001.04,0000.67
2022-03-12 19:12:00,,0825.3,5.00,0.00,23.4,22.4,00.0,32.4,25.2,10.5,0000.0,0001.91,0001.03,0000.68
2022-03-12 19:13:00,,0825.3,4.99,0.00,23.4,22.4,00.0,32.4,25.1,10.7,0000.0,0001.89,0001.05,0000.68
2022-03-12 19:14:00,,0825.3,5.01,0.00,23.4,22.4,00.0,32.4,25.1,10.7,0000.0,0001.92,0001.07,0000.69
2022-03-12 19:15:00,,0825.3,5.00,0.00,23.5,22.4,00.0,32.4,25.2,10.5,0000.0,0002.06,0001.10,0000.69
2022-03-12 19:16:00,,0825.2,4.99,0.00,23.5,22.5,00.0,32.4,25.2,10.4,0000.0,0002.04,0001.08,0000.67
2022-03-12 19:17:00,,0825.2,5.02,0.00,23.5,22.5,00.0,32.4,25.2,10.2,0000.0,0002.00,0001.07,0000.67
2022-03-12 19:18:00,,0825.2,4.99,0.00,23.5,22.5,00.0,32.4,25.2,10.1,0000.0,0002.10,0001.11,0000.68
2022-03-12 19:19:00,,0825.2,5.01,0.00,23.5,22.6,00.0,32.4,25.3,10.0,0000.0,0002.14,0001.13,0000.67
2022-03-12 19:20:00,,0825.1,4.99,0.00,23.5,22.6,00.0,32.4,25.2,10.3,0000.0,0002.11,0001.15,0000.68
2022-03-12 19:21:00,,0825.1,5.02,0.00,23.5,22.6,00.0,32.4,25.2,10.6,0000.0,0002.03,0001.13,0000.68
2022-03-12 19:22:00,,0825.1,4.98,0.00,23.6,22.6,00.0,32.5,25.3,10.0,0000.0,0002.09,0001.14,0000.68
2022-03-12 19:23:00,,0825.1,5.02,0.00,23.6,22.6,00.0,32.5,25.3,10.4,0000.0,0002.06,0001.12,0000.67
2022-03-12 19:24:00,,0825.1,4.99,0.00,23.6,22.6,00.0,32.5,25.3,10.2,0000.0,0002.09,0001.12,0000.67
2022-03-12 19:25:00,,0825.0,5.00,0.00,23.6,22.7,00.0,32.5,25.4,10.4,0000.0,0002.13,0001.10,0000.67
2022-03-12 19:26:00,,0825.0,5.00,0.00,23.6,22.7,00.0,32.5,25.4,10.1,0000.0,0002.01,0001.06,0000.67
2022-03-12 19:27:00,,0825.0,4.99,0.00,23.6,22.7,00.0,32.5,25.4,10.1,0000.0,0002.01,0001.05,0000.67
2022-03-12 19:28:00,,0825.1,5.01,0.00,23.6,22.7,00.0,32.5,25.4,09.5,0000.0,0002.00,0001.04,0000.66
2022-03-12 19:29:00,,0825.0,5.00,0.00,23.6,22.8,00.0,32.5,25.5,09.8,0000.0,0001.94,0001.02,0000.66
2022-03-12 19:30:00,,0825.0,5.00,0.00,23.7,22.8,00.0,32.5,25.5,10.3,0000.0,0001.81,0000.96,0000.66
2022-03-12 19:31:00,,0824.9,5.01,0.00,23.7,22.8,00.0,32.5,25.5,10.0,0000.0,0001.97,0000.95,0000.66
2022-03-12 19:32:00,,0824.9,4.99,0.00,23.7,22.8,00.0,32.5,25.5,10.0,0000.0,0002.13,0000.93,0000.65
2022-03-12 19:33:00,,0824.9,5.00,0.00,23.7,22.8,00.0,32.6,25.5,09.9,0000.0,0002.19,0000.93,0000.65
2022-03-12 19:34:00,,0824.9,5.01,0.00,23.7,22.8,00.0,32.6,25.5,10.1,0000.0,0002.28,0000.97,0000.65
2022-03-12 19:35:00,,0824.9,4.99,0.00,23.7,22.8,00.0,32.6,25.5,09.6,0000.0,0002.27,0000.96,0000.64
2022-03-12 19:36:00,,0824.8,5.00,0.00,23.8,22.9,00.0,32.6,25.5,10.1,0000.0,0002.13,0000.95,0000.64
2022-03-12 19:37:00,,0824.8,5.01,0.00,23.8,22.9,00.0,32.6,25.5,10.0,0000.0,0002.04,0000.92,0000.63
2022-03-12 19:38:00,,0824.9,4.99,0.00,23.8,22.9,00.0,32.6,25.5,09.7,0000.0,0001.97,0000.92,0000.63
2022-03-12 19:39:00,,0824.8,5.00,0.00,23.8,22.9,00.0,32.7,25.5,09.7,0000.0,0002.01,0000.94,0000.64
2022-03-12 19:40:00,,0824.6,5.01,0.00,23.8,22.9,00.0,32.7,25.6,09.9,0000.0,0002.05,0000.96,0000.64
2022-03-12 19:41:00,,0824.7,4.98,0.00,23.8,22.9,00.0,32.7,25.6,09.9,0000.0,0002.05,0000.97,0000.64
2022-03-12 19:42:00,,0824.6,5.01,0.00,23.8,22.9,00.0,32.7,25.6,10.2,0000.0,0002.04,0000.98,0000.64
2022-03-12 19:43:00,,0824.6,5.00,0.00,23.9,22.9,00.0,32.7,25.6,09.7,0000.0,0001.76,0001.01,0000.64
2022-03-12 19:44:00,,0824.6,4.99,0.00,23.9,23.0,00.0,32.7,25.6,09.8,0000.0,0002.55,0001.02,0000.63
2022-03-12 19:45:00,,0824.7,5.00,0.00,23.9,23.0,00.0,32.7,25.6,09.7,0000.0,0002.42,0000.97,0000.62
2022-03-12 19:46:00,,0824.6,5.00,0.00,23.9,23.0,00.0,32.7,25.7,09.8,0000.0,0003.04,0000.93,0000.62
2022-03-12 19:47:00,,0824.6,5.01,0.00,23.9,23.0,00.0,32.8,25.7,09.9,0000.0,0003.46,0000.91,0000.62
2022-03-12 19:48:00,,0824.6,4.99,0.00,23.9,23.1,00.0,32.8,25.7,10.0,0000.0,0003.51,0000.93,0000.62
2022-03-12 19:49:00,,0824.6,4.99,0.00,24.0,23.1,00.0,32.8,25.7,09.9,0000.0,0003.66,0000.95,0000.63
2022-03-12 19:50:00,,0824.6,5.02,0.00,24.0,23.1,00.0,32.8,25.7,10.2,0000.0,0003.61,0000.93,0000.62
2022-03-12 19:51:00,,0824.6,4.99,0.00,24.0,23.1,00.0,32.8,25.9,09.4,0000.0,0003.90,0000.89,0000.61
2022-03-12 19:52:00,,0824.8,4.99,0.00,24.0,23.2,00.0,32.8,25.9,09.9,0000.0,0004.31,0000.92,0000.60
2022-03-12 19:53:00,,0824.8,5.02,0.00,24.0,23.2,00.0,32.8,25.9,10.1,0000.0,0004.25,0000.90,0000.60
2022-03-12 19:54:00,,0824.6,4.99,0.00,24.0,23.2,00.0,32.9,25.9,09.8,0000.0,0004.19,0000.88,0000.60
2022-03-12 19:55:00,,0824.6,4.99,0.00,24.1,23.2,00.0,32.9,25.9,10.0,0000.0,0003.42,0000.88,0000.61
2022-03-12 19:56:00,,0824.6,5.01,0.00,24.1,23.2,00.0,32.9,25.9,10.3,0000.0,0003.30,0000.88,0000.63
2022-03-12 19:57:00,,0824.7,4.99,0.00,24.1,23.2,00.0,32.9,25.9,10.1,0000.0,0002.72,0000.88,0000.63
2022-03-12 19:58:00,,0824.7,5.01,0.00,24.1,23.2,00.0,32.9,25.9,10.1,0000.0,0002.15,0000.89,0000.63
2022-03-12 19:59:00,,0824.8,5.00,0.00,24.1,23.2,00.0,32.9,26.0,10.2,0000.0,0002.18,0000.90,0000.63
